Location: Costa Valle Imagna
(45.8000°N, 9.5000°E)
Time: 22:07:02
(UTC+00:00)

CZ-4B DEB - Pass Details

Date: 17 February 2020
Orbit: 840 x 862 km, 99.1° (Epoch: 05 April)

Event Time Altitude Azimuth Distance (km) Brightness Sun altitude
Rises 04:54:52 0° 14° (NNE) 3,426 7.5 -15.8°
Reaches altitude 10° 04:57:15 10° 15° (NNE) 2,483 6.8 -15.4°
Maximum altitude 05:02:46 88° 105° (ESE) 852 4.2 -14.5°
Drops below altitude 10° 05:08:14 10° 196° (SSW) 2,453 6.5 -13.5°
Sets 05:10:34 0° 196° (SSW) 3,382 7.2 -13.1°
